TimeEST,TemperatureF,Dew PointF,Humidity,Sea Level PressureIn,VisibilityMPH,Wind Direction,Wind SpeedMPH,Gust SpeedMPH,PrecipitationIn,Events,Conditions,WindDirDegrees,DateUTC
12:55 AM,61.2,47.7,61,30.03,10.0,Calm,Calm,-,N/A,,Scattered Clouds,0,2012-12-05 05:55:00
1:55 AM,60.1,47.5,63,30.01,10.0,Calm,Calm,-,N/A,,Partly Cloudy,0,2012-12-05 06:55:00
2:55 AM,55.8,47.5,74,30.01,10.0,Calm,Calm,-,N/A,,Mostly Cloudy,0,2012-12-05 07:55:00
3:55 AM,51.4,46.2,82,30.04,10.0,NW,12.7,-,N/A,,Scattered Clouds,310,2012-12-05 08:55:00
4:55 AM,60.3,46.9,61,30.06,10.0,NW,13.8,20.7,N/A,,Mostly Cloudy,310,2012-12-05 09:55:00
5:44 AM,59.0,44.6,59,30.08,10.0,NW,10.4,-,N/A,Rain,Light Rain,310,2012-12-05 10:44:00
5:55 AM,58.5,45.5,62,30.09,10.0,NW,10.4,-,0.00,Rain,Light Rain,310,2012-12-05 10:55:00
6:04 AM,59.0,44.6,59,30.09,10.0,NW,9.2,-,N/A,,Overcast,310,2012-12-05 11:04:00
6:17 AM,59.0,44.6,59,30.09,10.0,NW,5.8,-,N/A,Rain,Light Rain,320,2012-12-05 11:17:00
6:27 AM,57.2,44.6,63,30.10,10.0,NNW,6.9,-,N/A,,Overcast,330,2012-12-05 11:27:00
6:33 AM,57.2,44.6,63,30.11,10.0,NW,9.2,-,N/A,Rain,Light Rain,320,2012-12-05 11:33:00
6:55 AM,57.2,45.3,65,30.12,10.0,NW,8.1,-,0.00,Rain,Light Rain,310,2012-12-05 11:55:00
7:27 AM,55.4,42.8,63,30.13,10.0,NW,8.1,-,N/A,,Overcast,320,2012-12-05 12:27:00
7:55 AM,55.6,39.0,54,30.14,10.0,NW,8.1,-,0.00,,Overcast,310,2012-12-05 12:55:00
9:55 AM,55.0,31.5,41,30.18,10.0,NW,10.4,20.7,N/A,,Overcast,320,2012-12-05 14:55:00
10:55 AM,55.4,31.5,40,30.18,10.0,WNW,12.7,-,N/A,,Partly Cloudy,290,2012-12-05 15:55:00
11:55 AM,55.8,30.9,39,30.17,10.0,NW,16.1,23.0,N/A,,Clear,320,2012-12-05 16:55:00
12:55 PM,57.4,31.1,37,30.15,10.0,WNW,13.8,21.9,N/A,,Clear,300,2012-12-05 17:55:00
1:55 PM,59.5,30.0,33,30.14,10.0,NW,18.4,27.6,N/A,,Clear,310,2012-12-05 18:55:00
2:55 PM,59.5,28.4,31,30.14,10.0,WNW,16.1,23.0,N/A,,Clear,290,2012-12-05 19:55:00
3:55 PM,58.3,25.5,28,30.15,10.0,NW,15.0,19.6,N/A,,Clear,310,2012-12-05 20:55:00
4:55 PM,54.3,27.1,35,30.19,10.0,NW,10.4,-,N/A,,Clear,310,2012-12-05 21:55:00
5:55 PM,53.1,26.6,36,30.21,10.0,NW,9.2,-,N/A,,Clear,320,2012-12-05 22:55:00
6:55 PM,49.5,27.7,43,30.25,10.0,North,6.9,17.3,N/A,,Clear,350,2012-12-05 23:55:00
7:55 PM,47.5,27.0,45,30.28,10.0,NNW,4.6,20.7,N/A,,Clear,330,2012-12-06 00:55:00
8:55 PM,45.9,25.3,45,30.30,10.0,NNW,9.2,17.3,N/A,,Clear,330,2012-12-06 01:55:00
9:55 PM,43.2,23.9,47,30.31,10.0,NNW,11.5,23.0,N/A,,Clear,340,2012-12-06 02:55:00
10:55 PM,41.4,22.3,47,30.31,10.0,NNW,8.1,17.3,N/A,,Clear,330,2012-12-06 03:55:00
11:55 PM,39.6,21.4,48,30.32,10.0,NNW,5.8,-,N/A,,Clear,330,2012-12-06 04:55:00